This is the latest recevied weather packets stored in our database for station/object W1BKW. If no packets are shown the sender has not sent any weather packets the latest 10 day(s).
| Time | Temp. | Humidity | Pressure | Rain* | Wind** | Luminosity | Snow |
|---|---|---|---|---|---|---|---|
| 1777275719 | 3.89° C | 97% | 1021.5 hPa | 0 mm | - | 0 W/m² | - |
| 1777274814 | 3.89° C | 97% | 1021.6 hPa | 0 mm | - | 0 W/m² | - |
| 1777273914 | 3.89° C | 95% | 1021.4 hPa | 0 mm | - | 0 W/m² | - |
| 1777273012 | 3.89° C | 95% | 1021.3 hPa | 0 mm | - | 0 W/m² | - |
| 1777272111 | 3.89° C | 92% | 1021.1 hPa | 0 mm | - | 0 W/m² | - |
| 1777271211 | 4.44° C | 94% | 1021.1 hPa | 0 mm | - | 0 W/m² | - |
| 1777270306 | 4.44° C | 90% | 1021.3 hPa | 0 mm | - | 0 W/m² | - |
| 1777269402 | 4.44° C | 92% | 1021.1 hPa | 0 mm | - | 0 W/m² | - |
| 1777268499 | 5° C | 91% | 1021.1 hPa | 0 mm | - | 0 W/m² | - |
| 1777267595 | 5° C | 88% | 1021.4 hPa | 0 mm | - | 0 W/m² | - |
| 1777266692 | 5° C | 86% | 1021.5 hPa | 0 mm | - | 0 W/m² | - |
| 1777265791 | 5.56° C | 88% | 1021.4 hPa | 0 mm | - | 0 W/m² | - |
| 1777264886 | 5.56° C | 88% | 1021.3 hPa | 0 mm | - | 0 W/m² | - |
| 1777263984 | 5.56° C | 87% | 1021.4 hPa | 0 mm | - | 0 W/m² | - |
| 1777263080 | 6.11° C | 84% | 1021.4 hPa | 0 mm | - | 0 W/m² | - |
| 1777262175 | 6.67° C | 78% | 1021.1 hPa | 0 mm | - | 0 W/m² | - |
| 1777261272 | 6.67° C | 84% | 1020.9 hPa | 0 mm | - | 0 W/m² | - |
| 1777260369 | 7.22° C | 84% | 1020.9 hPa | 0 mm | - | 0 W/m² | - |
| 1777259465 | 7.22° C | 78% | 1020.9 hPa | 0 mm | - | 0 W/m² | - |
| 1777258561 | 7.78° C | 81% | 1020.9 hPa | 0 mm | - | 0 W/m² | - |
| 1777257658 | 7.78° C | 73% | 1021.1 hPa | 0 mm | - | 0 W/m² | - |
| 1777256756 | 8.33° C | 76% | 1020.7 hPa | 0 mm | - | 0 W/m² | - |
| 1777255856 | 8.89° C | 74% | 1021.1 hPa | 0 mm | - | 0 W/m² | - |
| 1777254955 | 9.44° C | 79% | 1020.4 hPa | 0 mm | - | 0 W/m² | - |
| 1777254050 | 10° C | 65% | 1020.2 hPa | 0 mm | - | 0 W/m² | - |
* Rain latest hour (hover to see other rain measurements)
** Current wind speed in m/s (hover to see current wind gust speed)